Location: Borgo
(42.3939°N, 9.2791°E)
Time: 21:46:29
(UTC+00:00)

CZ-4 R/B - Pass Details

Date: 24 January 2021
Orbit: 531 x 599 km, 97.7° (Epoch: 03 March)

Event Time Altitude Azimuth Distance (km) Brightness Sun altitude
Rises 17:50:24 0° 162° (SSE) 2,790 4.9 -15.4°
Reaches altitude 10° 17:52:34 10° 161° (SSE) 1,885 4.0 -15.8°
Maximum altitude 17:56:39 75° 76° (ENE) 594 1.2 -16.6°
Drops below altitude 10° 18:00:40 10° 351° (N) 1,859 4.0 -17.3°
Sets 18:02:47 0° 350° (N) 2,747 4.9 -17.7°
